Topeka, KS

4:08 AM CDT on June 25, 2017 (GMT -0500)
Billard Municipal

Weather History for KTOP - August, 2014

Change the Weather History Date:

Friday, August 29, 2014

  Actual Average Record
Temperature  
Mean Temperature 80 °F 75 °F  
Max Temperature 89 °F 87 °F 110 °F (1984)
Min Temperature 71 °F 64 °F 41 °F (1988)
Degree Days  
Heating Degree Days 0 0  
Month to date heating degree days 0 0  
Since 1 June heating degree days 0 8  
Since 1 July heating degree days 0 0  
Cooling Degree Days 15 10  
Month to date cooling degree days 454 366  
Year to date cooling degree days 1377 1208  
Since 1 June cooling degree days 1160 1082  
Growing Degree Days 30 (Base 50)    
Moisture  
Dew Point 67 °F    
Average Humidity 70    
Maximum Humidity 93    
Minimum Humidity 46    
Precipitation  
Precipitation 0.13 in 0.13 in 3.02 in (1994)
Month to date precipitation 4.25 3.97  
Year to date precipitation 18.90 26.30  
Snow  
Snow 0.00 in 0.00 in 0.00 in ()
Month to date snowfall T 0.0  
Year to date snowfall 23.1 11.3  
Since 1 July snowfall T 0.0  
Snow Depth 0.00 in    
Sea Level Pressure  
Sea Level Pressure 29.82 in    
Wind  
Wind Speed 6 mph (SSW)    
Max Wind Speed 16 mph    
Max Gust Speed 26 mph    
Visibility 9 miles    
Events Rain , Thunderstorm    
T = Trace of Precipitation, MM = Missing Value Source: NWS Daily Summary

Daily Weather History Graph

Daily Weather History Graph

Search for Another Location

Airport or City:

Trip Planner

Search our weather history database for the weather conditions in past years. The results will help you decide how hot, cold, wet, or windy it might be!

Date:

Astronomy

Aug. 29, 2014 Rise Set
Actual Time 6:48 AM CDT 7:57 PM CDT
Civil Twilight 6:20 AM CDT 8:24 PM CDT
Nautical Twilight 5:48 AM CDT 8:57 PM CDT
Astronomical Twilight 5:13 AM CDT 9:31 PM CDT
Moon 10:36 AM CDT (8/29) 9:58 PM CDT (8/29)
Length of Visible Light 14h 04m
Length of Day
13h 08m
Waxing Crescent, 15% of the Moon is Illuminated
Aug 29
Waxing Crescent
Sep 2
First Quarter
Sep 8
Full
Sep 15
Last Quarter
Sep 24
New

Hourly Weather History & Observations

Time (CDT) Temp. Heat Index Dew Point Humidity Pressure Visibility Wind Dir Wind Speed Gust Speed Precip Events Conditions
12:53 AM 77.0 °F - 64.9 °F 66% 29.83 in 10.0 mi ESE 5.8 mph - N/A   Clear
1:53 AM 77.0 °F - 64.0 °F 64% 29.82 in 10.0 mi South 3.5 mph - N/A   Clear
2:53 AM 73.9 °F - 64.9 °F 73% 29.80 in 10.0 mi East 4.6 mph - N/A   Clear
3:53 AM 73.0 °F - 64.9 °F 76% 29.79 in 10.0 mi ESE 8.1 mph - N/A   Mostly Cloudy
4:53 AM 75.0 °F - 66.0 °F 73% 29.82 in 10.0 mi SSW 4.6 mph - N/A   Overcast
5:53 AM 72.0 °F - 66.9 °F 84% 29.82 in 10.0 mi SE 4.6 mph - N/A   Partly Cloudy
6:53 AM 71.1 °F - 66.9 °F 87% 29.83 in 10.0 mi SE 4.6 mph - N/A   Partly Cloudy
7:53 AM 73.9 °F - 66.9 °F 79% 29.84 in 10.0 mi South 5.8 mph - N/A   Mostly Cloudy
8:53 AM 73.9 °F - 66.9 °F 79% 29.85 in 10.0 mi SW 11.5 mph 18.4 mph N/A   Mostly Cloudy
9:53 AM 73.0 °F - 68.0 °F 84% 29.86 in 10.0 mi SW 9.2 mph - 0.00 in Rain Light Rain
10:11 AM 72.0 °F - 69.1 °F 91% 29.89 in 2.5 mi SSW 4.6 mph - 0.04 in Rain Light Rain
10:18 AM 72.0 °F - 70.0 °F 93% 29.89 in 6.0 mi SW 4.6 mph - 0.04 in Rain Light Rain
10:53 AM 73.0 °F - 69.1 °F 87% 29.85 in 10.0 mi WSW 3.5 mph - 0.05 in   Overcast
11:53 AM 75.9 °F - 66.9 °F 74% 29.85 in 10.0 mi Variable 5.8 mph - N/A   Partly Cloudy
12:53 PM 79.0 °F - 68.0 °F 69% 29.83 in 10.0 mi SE 5.8 mph - N/A   Clear
1:53 PM 82.9 °F 85.8 °F 68.0 °F 60% 29.80 in 10.0 mi ESE 9.2 mph - N/A   Clear
2:53 PM 84.9 °F 86.6 °F 64.9 °F 51% 29.78 in 10.0 mi South 10.4 mph - N/A   Mostly Cloudy
3:53 PM 87.1 °F 89.2 °F 66.0 °F 49% 29.76 in 10.0 mi South 13.8 mph 19.6 mph N/A   Clear
4:53 PM 89.1 °F 91.3 °F 66.0 °F 46% 29.74 in 10.0 mi South 12.7 mph - 0.00 in   Scattered Clouds
5:53 PM 88.0 °F 89.3 °F 64.0 °F 45% 29.75 in 10.0 mi SW 5.8 mph - N/A   Mostly Cloudy
6:24 PM 79.0 °F - 66.9 °F 66% 29.77 in 10.0 mi WNW 5.8 mph 23.0 mph 0.00 in Rain , Thunderstorm Light Thunderstorms and Rain
7:01 PM 79.0 °F - 66.0 °F 64% 29.81 in 10.0 mi Variable 4.6 mph - N/A Thunderstorm Mostly Cloudy
7:21 PM 73.0 °F - 68.0 °F 84% 29.80 in 2.5 mi West 10.4 mph - 0.07 in Rain , Thunderstorm Rain
7:29 PM 73.0 °F - 69.1 °F 87% 29.79 in 7.0 mi West 6.9 mph - 0.07 in Rain , Thunderstorm Light Rain
7:50 PM 73.4 °F - 68.0 °F 83% 29.79 in 10.0 mi Calm Calm - 0.08 in   Mostly Cloudy
7:53 PM 73.0 °F - 69.1 °F 87% 29.77 in 10.0 mi Calm Calm - 0.08 in Rain Light Rain
8:53 PM 73.0 °F - 71.1 °F 93% 29.79 in 10.0 mi Calm Calm - 0.00 in   Overcast
9:53 PM 73.9 °F - 72.0 °F 93% 29.81 in 10.0 mi Calm Calm - N/A   Overcast
10:53 PM 75.0 °F - 72.0 °F 90% 29.83 in 10.0 mi South 3.5 mph - N/A   Mostly Cloudy
11:53 PM 73.9 °F - 70.0 °F 87% 29.85 in 10.0 mi West 4.6 mph - N/A   Partly Cloudy